Regional Weather Roundup
Issued by NWS

Home | Current Version | Previous Version | Text Only | Print | Product List | Glossary On
Versions: 1 2 3 4 5 6 7 8 9 10 11 12 13 14 15 16 17 18 19 20 21 22 23 24 25 26 27 28 29 30 31 32 33 34 35 36 37 38 39 40 41 42 43 44 45 46 47 48 49 50
000
ASUS43 KLSX 292007
RWRMO

WEATHER SUMMARY FOR MISSOURI
NATIONAL WEATHER SERVICE SPRINGFIELD MO
300 PM CDT MON JUN 29 2015

NOTE: "FAIR" INDICATES FEW OR NO CLOUDS BELOW 12,000 FEET WITH NO
       SIGNIFICANT WEATHER AND/OR OBSTRUCTIONS TO VISIBILITY.
       CURRENT SKY AND/OR WEATHER CONDITIONS ARE NOT AVAILABLE FOR
       CHILLICOTHE AND FARMINGTON.

MOZ001>031-035>038-043-044-053-054-292100-
...NORTHERN AND WESTERN MISSOURI...

CITY           SKY/WX    TMP DP  RH WIND       PRES   REMARKS
KANSAS CTY INT CLOUDY    85  64  49 NW9       29.93F
KANSAS C DTWN  MOSUNNY   87  64  46 W9        29.92F
LEE`S SUMMIT   MOSUNNY   84  63  49 NW12      29.94F
ST JOSEPH      MOSUNNY   88  60  38 NW15      29.92F
CHILLICOTHE      N/A     86  66  51 W8        29.91S
KIRKSVILLE     MOSUNNY   84  63  49 NW9       29.89F

$$
MOZ066>068-077>081-088>096-101>105-292100-
...SOUTHWEST MISSOURI...

CITY           SKY/WX    TMP DP  RH WIND       PRES   REMARKS
SPRINGFIELD    MOSUNNY   85  63  47 NW10      29.95S
JOPLIN         SUNNY     86  64  47 NW12      29.96F

$$
MOZ032>034-039>042-045>050-055>058-069>072-292100-
...CENTRAL MISSOURI...

CITY           SKY/WX    TMP DP  RH WIND       PRES   REMARKS
COLUMBIA       MOSUNNY   85  65  51 NW12      29.90F
JEFFERSON CITY SUNNY     85  62  46 W15       29.88F
ROLLA          MOSUNNY   82  66  58 NW10      29.90F
SEDALIA        MOSUNNY   85  66  53 NW7       29.93S
WHITEMAN AFB   MOSUNNY   85  64  50 NW10G21   29.91F
WARRENSBURG    MOSUNNY   82  63  51 W8        29.92F
OSAGE BEACH    MOSUNNY   82  63  51 W10       29.92S

$$
MOZ051-052-059>065-292100-
...EAST CENTRAL MISSOURI...

CITY           SKY/WX    TMP DP  RH WIND       PRES   REMARKS
ST LOUIS INTL  MOSUNNY   84  66  54 NW10      29.88S
SPIRIT OF STL  PTSUNNY   83  66  56 W12       29.86F
ST CHARLES     SUNNY     81  67  62 NW9       29.86F

$$
MOZ072>076-082>087-097>100-106>115-292100-
...SOUTH CENTRAL AND SOUTHEAST MISSOURI...

CITY           SKY/WX    TMP DP  RH WIND       PRES   REMARKS
CAPE GIRARDEAU SUNNY     88  65  46 W9        29.85S HX  90
FARMINGTON     MOSUNNY   82  66  57 W10       29.93S
POPLAR BLUFF   SUNNY     90  65  43 N12       29.84F HX  92
WEST PLAINS    SUNNY     85  63  47 W9        29.94S

$$


USA.gov is the U.S. government's official web portal to all federal, state and local government web resources and services.